This is the latest recevied weather packets stored in our database for station/object W4WYD-2. If no packets are shown the sender has not sent any weather packets the latest 10 day(s).
| Time | Temp. | Humidity | Pressure | Rain* | Wind** | Luminosity | Snow |
|---|---|---|---|---|---|---|---|
| 1787834427 | 21.11° C | 99% | 1016.2 hPa | 0 mm | - | 49 W/m² | - |
| 1787834123 | 21.11° C | 99% | 1016.1 hPa | 0 mm | - | 56 W/m² | - |
| 1787833819 | 21.11° C | 99% | 1016.2 hPa | 0 mm | - | 47 W/m² | - |
| 1787833514 | 20.56° C | 99% | 1016.1 hPa | 0 mm | - | 37 W/m² | - |
| 1787833209 | 20.56° C | 99% | 1016 hPa | 0 mm | - | 35 W/m² | - |
| 1787832905 | 20.56° C | 99% | 1016.2 hPa | 0 mm | - | 38 W/m² | - |
| 1787832601 | 20.56° C | 99% | 1016.3 hPa | 0 mm | - | 30 W/m² | - |
| 1787832299 | 20.56° C | 99% | 1016.1 hPa | 0 mm | - | 32 W/m² | - |
| 1787831997 | 20.56° C | 99% | 1016.1 hPa | 0 mm | - | 28 W/m² | - |
| 1787831692 | 20.56° C | 99% | 1016.1 hPa | 0 mm | - | 22 W/m² | - |
| 1787831390 | 20.56° C | 99% | 1016.1 hPa | 0 mm | - | 19 W/m² | - |
| 1787831088 | 20.56° C | 99% | 1016.1 hPa | 0 mm | - | 14 W/m² | - |
| 1787830787 | 20.56° C | 99% | 1015.8 hPa | 0 mm | - | 11 W/m² | - |
| 1787830487 | 20.56° C | 99% | 1015.9 hPa | 0 mm | - | 7 W/m² | - |
| 1787830185 | 20.56° C | 99% | 1015.8 hPa | 0 mm | - | 4 W/m² | - |
| 1787829880 | 20.56° C | 99% | 1015.8 hPa | 0 mm | - | 3 W/m² | - |
| 1787829579 | 20.56° C | 99% | 1015.7 hPa | 0 mm | - | 1 W/m² | - |
| 1787829276 | 20.56° C | 99% | 1015.7 hPa | 0 mm | - | 1 W/m² | - |
| 1787828971 | 20° C | 99% | 1015.5 hPa | 0 mm | - | 0 W/m² | - |
| 1787828661 | 20° C | 99% | 1015.8 hPa | 0 mm | - | 0 W/m² | - |
| 1787828357 | 20° C | 99% | 1015.7 hPa | 0 mm | - | 0 W/m² | - |
| 1787828055 | 20° C | 99% | 1015.6 hPa | 0 mm | - | 0 W/m² | - |
| 1787827749 | 20° C | 99% | 1015.7 hPa | 0 mm | - | 0 W/m² | - |
| 1787827446 | 20° C | 99% | 1015.4 hPa | 0 mm | - | 0 W/m² | - |
| 1787827145 | 20° C | 99% | 1015.2 hPa | 0 mm | - | 0 W/m² | - |
* Rain latest hour (hover to see other rain measurements)
** Current wind speed in m/s (hover to see current wind gust speed)